1KUNS-PF (43467 NORAD) Tracking and Keplerian Element Data

This shows tracking and keplerian element data for the satellite.

Feedback or suggestion? Click here.




ElementValue
Catalog43467
Name1KUNS-PF
Epoch Orbit1115
Epoch Day203.17940416
Epoch Year2018
RAAN203.5249
Inclination51.6386
Eccentricity0.0001938
Argument of Perigee271.3386
Mean Anonmoly88.7383
Mean Motion15.560636
Decay Rate6.812E-05
L11 43467U 98067NQ 18203.17940416 .00006812 00000-0 10265-3 0 9994
L22 43467 51.6386 203.5249 0001938 271.3386 88.7383 15.56063600 11158

Live tracking and technical data element details for 1KUNS-PF (NORAD 43467). 1KUNS-PF can be tracked NOW for your location showing map with azimuth and elevation plus other details from your city location.

Track the satellite on the map from your city or location and see movement details for azimuth, elevation, latitude, longitude, range, height, and movement on the map or in text.







IsCatalogInMostPopularTable: catalog: 43467, numindb: 21
Update: records affected: 1



GetName: 43467 1KUNS-PF

Hit Count: updated at: Mon, 23 Jul 2018 07:50:46 GMT